Location: Seminole
(32.7190°N, 102.6440°W)
Time: 20:56:46
(UTC-05:00)

Meteor 2-10 - Visible Passes

Search period start: 28 April 2016 00:00
Search period end: 08 May 2016 00:00
Orbit: 738 x 869 km, 81.2° (Epoch: 27 April)

Date Brightness Start Highest point End Pass type
(mag) Time Alt. Az. Time Alt. Az. Time Alt. Az.
28 Apr 7.5 22:12:38 10° W 22:13:53 11° WNW 22:15:07 10° WNW visible
29 Apr 7.1 21:44:13 10° WSW 21:47:40 17° WNW 21:51:04 10° NNW visible
30 Apr 6.7 21:17:04 10° SW 21:21:32 25° WNW 21:25:54 10° NNW visible
01 May 7.3 06:14:06 10° NE 06:16:30 13° ENE 06:18:53 10° E visible
01 May 6.0 20:50:22 10° SW 20:55:26 37° WNW 21:00:22 10° N visible
04 May 7.6 21:17:31 10° W 21:19:41 12° WNW 21:21:48 10° NW visible
05 May 6.4 06:10:19 10° NNE 06:14:35 27° ENE 06:18:51 10° SE visible
06 May 6.9 05:45:03 10° NNE 05:48:26 18° ENE 05:51:48 10° ESE visible
07 May 7.3 05:20:40 10° NE 05:22:14 11° ENE 05:23:46 10° E visible
